• In Uzbekistan
  • List of Countries
  • For 7 days
  • Water Temperature
  • Satellite Maps
  • Weather Map
  • Weather Widgets
  • user-avatar
    Login

    Hourly Weather Ostrusza

    Today, 22 February, Friday

    Time Temperature Precipitation Wind Pressure Humidity
    00:00 +4°C° 0.7 mm 4 mps 736 mmHg 88%
    01:00 +3°C° 0 mm 3 mps 736 mmHg 89%
    02:00 +3°C° 0.8 mm 3 mps 736 mmHg 89%
    03:00 +3°C° 0.8 mm 4 mps 736 mmHg 90%
    04:00 +3°C° 0.8 mm 4 mps 735 mmHg 90%
    05:00 +1°C° 1 mm 5 mps 736 mmHg 90%
    06:00 -1°C° 1 mm 6 mps 737 mmHg 91%
    07:00 -2°C° 0 mm 6 mps 738 mmHg 90%
    08:00 -3°C° 0.4 mm 6 mps 739 mmHg 85%
    09:00 -4°C° 0.4 mm 6 mps 740 mmHg 81%
    10:00 -5°C° 0.4 mm 6 mps 741 mmHg 76%
    11:00 -6°C° 0 mm 7 mps 742 mmHg 70%
    12:00 -6°C° 0 mm 7 mps 743 mmHg 64%
    13:00 -6°C° 0 mm 7 mps 744 mmHg 57%
    14:00 -7°C° 0 mm 7 mps 745 mmHg 56%
    15:00 -7°C° 0 mm 7 mps 745 mmHg 55%
    16:00 -7°C° 0 mm 7 mps 746 mmHg 54%
    17:00 -8°C° 0 mm 6 mps 746 mmHg 55%
    18:00 -8°C° 0 mm 6 mps 747 mmHg 56%
    19:00 -8°C° 0 mm 5 mps 748 mmHg 57%
    20:00 -8°C° 0 mm 5 mps 748 mmHg 55%
    21:00 -8°C° 0 mm 5 mps 749 mmHg 53%
    22:00 -8°C° 0 mm 5 mps 750 mmHg 52%
    23:00 -8°C° 0 mm 5 mps 750 mmHg 51%

    Tomorrow, 23 February, Saturday

    Time Temperature Precipitation Wind Pressure Humidity
    00:00 -8°C° 0 mm 5 mps 750 mmHg 51%
    01:00 -8°C° 0 mm 5 mps 751 mmHg 51%
    02:00 -8°C° 0 mm 4 mps 751 mmHg 52%
    03:00 -8°C° 0 mm 4 mps 751 mmHg 54%
    04:00 -8°C° 0 mm 4 mps 751 mmHg 56%
    05:00 -8°C° 0 mm 4 mps 752 mmHg 57%
    06:00 -9°C° 0 mm 4 mps 752 mmHg 59%
    07:00 -8°C° 0 mm 3 mps 752 mmHg 61%
    08:00 -7°C° 0 mm 3 mps 752 mmHg 59%
    09:00 -6°C° 0 mm 3 mps 753 mmHg 56%
    10:00 -6°C° 0 mm 3 mps 753 mmHg 54%
    11:00 -5°C° 0 mm 3 mps 753 mmHg 52%
    12:00 -5°C° 0 mm 3 mps 753 mmHg 50%
    13:00 -4°C° 0 mm 3 mps 753 mmHg 47%
    14:00 -4°C° 0 mm 3 mps 752 mmHg 47%
    15:00 -4°C° 0 mm 3 mps 752 mmHg 47%
    16:00 -3°C° 0 mm 2 mps 752 mmHg 47%
    17:00 -4°C° 0 mm 2 mps 752 mmHg 50%
    18:00 -2°C° 0 mm 1 mps 752 mmHg 54%
    19:00 -3°C° 0 mm 1 mps 752 mmHg 57%
    20:00 -3°C° 0 mm 1 mps 752 mmHg 57%
    21:00 -4°C° 0 mm 0 mps 752 mmHg 57%
    22:00 -4°C° 0 mm 0 mps 752 mmHg 58%
    23:00 -4°C° 0 mm 0 mps 752 mmHg 58%

    Day after tomorrow, 24 February, Sunday

    Time Temperature Precipitation Wind Pressure Humidity
    00:00 -5°C° 0 mm 0 mps 752 mmHg 58%
    01:00 -5°C° 0 mm 0 mps 752 mmHg 59%
    02:00 -5°C° 0 mm 0 mps 751 mmHg 58%
    03:00 -5°C° 0 mm 0 mps 751 mmHg 57%
    04:00 -5°C° 0 mm 0 mps 751 mmHg 56%
    05:00 -3°C° 0 mm 1 mps 751 mmHg 54%
    06:00 -3°C° 0 mm 1 mps 751 mmHg 52%
    07:00 -3°C° 0 mm 1 mps 750 mmHg 49%
    08:00 -2°C° 0 mm 1 mps 750 mmHg 45%
    09:00 -1°C° 0 mm 1 mps 750 mmHg 41%
    10:00 0°C° 0 mm 1 mps 750 mmHg 36%
    11:00 -1°C° 0 mm 2 mps 750 mmHg 33%
    12:00 +1°C° 0 mm 2 mps 750 mmHg 30%
    13:00 +3°C° 0 mm 2 mps 749 mmHg 27%
    14:00 +3°C° 0 mm 2 mps 749 mmHg 30%
    15:00 +2°C° 0 mm 2 mps 749 mmHg 34%
    16:00 +2°C° 0 mm 2 mps 748 mmHg 37%
    17:00 +1°C° 0 mm 2 mps 749 mmHg 41%
    18:00 -1°C° 0 mm 2 mps 749 mmHg 45%
    19:00 -2°C° 0 mm 2 mps 749 mmHg 48%
    20:00 -2°C° 0 mm 2 mps 749 mmHg 49%
    21:00 -2°C° 0 mm 2 mps 749 mmHg 50%
    22:00 -2°C° 0 mm 2 mps 749 mmHg 50%
    23:00 -2°C° 0 mm 2 mps 749 mmHg 50%

    25 February, Monday

    Time Temperature Precipitation Wind Pressure Humidity
    00:00 -2°C° 0 mm 2 mps 749 mmHg 50%
    01:00 -2°C° 0 mm 2 mps 749 mmHg 49%
    02:00 -2°C° 0 mm 2 mps 749 mmHg 51%
    03:00 -2°C° 0 mm 2 mps 748 mmHg 53%
    04:00 -2°C° 0 mm 2 mps 748 mmHg 55%
    05:00 -2°C° 0 mm 2 mps 748 mmHg 57%
    06:00 -2°C° 0 mm 2 mps 748 mmHg 60%
    07:00 -2°C° 0 mm 2 mps 748 mmHg 62%
    08:00 0°C° 0 mm 3 mps 748 mmHg 61%
    09:00 0°C° 0 mm 4 mps 748 mmHg 60%
    10:00 +1°C° 0 mm 4 mps 749 mmHg 59%
    11:00 +3°C° 0 mm 4 mps 748 mmHg 61%
    12:00 +4°C° 0 mm 4 mps 748 mmHg 63%
    13:00 +5°C° 0 mm 4 mps 748 mmHg 65%
    14:00 +5°C° 0 mm 4 mps 748 mmHg 70%
    15:00 +4°C° 0 mm 3 mps 748 mmHg 75%
    16:00 +4°C° 0 mm 3 mps 747 mmHg 79%
    17:00 +3°C° 0 mm 3 mps 747 mmHg 83%
    18:00 +2°C° 0 mm 2 mps 747 mmHg 88%
    19:00 +1°C° 0 mm 2 mps 747 mmHg 92%
    20:00 +1°C° 0 mm 2 mps 747 mmHg 92%
    21:00 +1°C° 0 mm 2 mps 747 mmHg 92%
    22:00 -1°C° 0 mm 2 mps 747 mmHg 93%
    23:00 -1°C° 0 mm 2 mps 747 mmHg 92%

    26 February, Tuesday

    Time Temperature Precipitation Wind Pressure Humidity
    00:00 -1°C° 0 mm 3 mps 747 mmHg 92%
    01:00 -1°C° 0 mm 3 mps 746 mmHg 91%
    02:00 -1°C° 0 mm 3 mps 746 mmHg 91%
    03:00 -1°C° 0 mm 3 mps 746 mmHg 92%
    04:00 -1°C° 0 mm 3 mps 745 mmHg 92%
    05:00 0°C° 0 mm 3 mps 745 mmHg 92%
    06:00 0°C° 0 mm 3 mps 745 mmHg 92%
    07:00 0°C° 0 mm 3 mps 744 mmHg 91%
    08:00 +1°C° 0 mm 4 mps 744 mmHg 84%
    09:00 +2°C° 0 mm 5 mps 744 mmHg 76%
    10:00 +4°C° 0 mm 6 mps 744 mmHg 69%
    11:00 +5°C° 0 mm 6 mps 743 mmHg 64%
    12:00 +5°C° 0 mm 6 mps 743 mmHg 59%
    13:00 +6°C° 0 mm 7 mps 742 mmHg 54%
    14:00 +7°C° 0 mm 6 mps 742 mmHg 56%
    15:00 +5°C° 0 mm 6 mps 742 mmHg 58%
    16:00 +5°C° 0 mm 6 mps 742 mmHg 61%
    17:00 +5°C° 0 mm 5 mps 742 mmHg 65%
    18:00 +5°C° 0 mm 5 mps 742 mmHg 68%
    19:00 +4°C° 0 mm 4 mps 742 mmHg 72%
    20:00 +3°C° 0 mm 4 mps 743 mmHg 77%
    21:00 +1°C° 0 mm 4 mps 743 mmHg 82%
    22:00 +2°C° 0 mm 3 mps 743 mmHg 87%
    23:00 +1°C° 0 mm 3 mps 743 mmHg 89%

    27 February, Wednesday

    Time Temperature Precipitation Wind Pressure Humidity
    00:00 +1°C° 0 mm 3 mps 743 mmHg 92%
    01:00 0°C° 0 mm 3 mps 743 mmHg 94%
    02:00 0°C° 0 mm 3 mps 743 mmHg 94%
    03:00 0°C° 0 mm 3 mps 743 mmHg 95%
    04:00 0°C° 0 mm 3 mps 743 mmHg 96%
    05:00 -1°C° 0 mm 3 mps 743 mmHg 95%
    06:00 -1°C° 0 mm 2 mps 743 mmHg 95%
    07:00 -1°C° 0 mm 2 mps 743 mmHg 95%
    08:00 +1°C° 0 mm 3 mps 743 mmHg 86%
    09:00 +2°C° 0 mm 3 mps 743 mmHg 78%
    10:00 +4°C° 0 mm 3 mps 743 mmHg 69%
    11:00 +5°C° 0 mm 3 mps 743 mmHg 63%
    12:00 +7°C° 0 mm 3 mps 742 mmHg 57%
    13:00 +9°C° 0 mm 3 mps 742 mmHg 51%
    14:00 +9°C° 0 mm 3 mps 741 mmHg 55%
    15:00 +8°C° 0 mm 3 mps 740 mmHg 58%
    16:00 +8°C° 0 mm 3 mps 740 mmHg 61%
    17:00 +7°C° 0 mm 3 mps 739 mmHg 67%
    18:00 +5°C° 0 mm 3 mps 739 mmHg 73%
    19:00 +4°C° 0 mm 3 mps 738 mmHg 79%
    20:00 +4°C° 0 mm 3 mps 738 mmHg 77%
    21:00 +3°C° 0 mm 3 mps 738 mmHg 75%
    22:00 +3°C° 0 mm 3 mps 737 mmHg 74%
    23:00 +3°C° 0 mm 3 mps 737 mmHg 73%
    Show more